Location: Unspecified
(0.0000°N, 0.0000°E)
Time: 20:51:32
(UTC+00:00)

HO-68 - Visible Passes

Search period start: 04 June 2023 00:00
Search period end: 14 June 2023 00:00
Orbit: 1193 x 1204 km, 100.2° (Epoch: 04 June)

Date Brightness Start Highest point End Pass type
(mag) Time Alt. Az. Time Alt. Az. Time Alt. Az.
04 Jun ? 02:56:08 10° NNE 03:00:30 41° NNE 03:00:30 41° NNE visible
05 Jun ? 02:39:22 10° NNE 02:43:16 34° NE 02:43:16 34° NE visible
05 Jun ? 04:30:12 10° NW 04:32:42 14° WNW 04:32:42 14° WNW visible
06 Jun ? 02:22:52 10° NE 02:26:02 26° NE 02:26:02 26° NE visible
06 Jun ? 04:11:41 10° NNW 04:15:29 20° WNW 04:15:29 20° WNW visible
07 Jun ? 02:06:38 10° NE 02:08:47 18° ENE 02:08:47 18° ENE visible
07 Jun ? 03:53:50 10° NNW 03:58:14 28° NW 03:58:14 28° NW visible
08 Jun ? 01:50:49 10° ENE 01:51:33 12° ENE 01:51:33 12° ENE visible
08 Jun ? 03:36:20 10° N 03:41:00 36° NW 03:41:00 36° NW visible
09 Jun ? 03:19:06 10° N 03:23:45 43° NNW 03:23:45 43° NNW visible
10 Jun ? 03:02:03 10° NNE 03:06:31 43° NNE 03:06:31 43° NNE visible
11 Jun ? 02:45:13 10° NNE 02:49:16 37° NE 02:49:16 37° NE visible
11 Jun ? 04:37:10 10° NW 04:38:43 12° WNW 04:38:43 12° WNW visible
12 Jun ? 02:28:37 10° NNE 02:32:02 28° NE 02:32:02 28° NE visible
12 Jun ? 04:18:07 10° NNW 04:21:28 18° WNW 04:21:28 18° WNW visible
13 Jun ? 02:12:16 10° NE 02:14:47 21° ENE 02:14:47 21° ENE visible
13 Jun ? 04:00:04 10° NNW 04:04:14 25° NW 04:04:14 25° NW visible
